This demonstration page uses our WeatherBlox Daily Observations layout. Learn more.

Left ArrowRight Arrow

Hourly Observations for March 28, 2022

Temp ( °F °C ) Dew Point ( °F °C ) Humidity (%) Winds ( mph kmh ) Pressure ( in mb ) Visibility ( mi km ) Precip ( " mm )
12:53 am 00:53 Clear 46 7.8 26 -3.3 46 46 ENE 9 15 29.64 1004 10 16 0.00 0.00
1:53 am 01:53 Clear 43 6.1 25 -3.9 49 49 ENE 7 11 29.63 1003 10 16 0.00 0.00
2:53 am 02:53 Mostly Clear 42 5.6 25 -3.9 51 51 VRB 3 6 29.61 1003 10 16 0.00 0.00
3:53 am 03:53 Clear 41 5 26 -3.3 55 55 VRB 7 11 29.60 1002 10 16 0.00 0.00
4:53 am 04:53 Cloudy 40 4.4 26 -3.3 58 58 VRB 7 11 29.59 1002 10 16 0.00 0.00
5:53 am 05:53 Clear 40 4.4 25 -3.9 55 55 ENE 6 9 29.57 1001 10 16 0.00 0.00
6:53 am 06:53 Clear 38 3.3 25 -3.9 60 60 ENE 7 11 29.57 1002 10 16 0.00 0.00
7:53 am 07:53 Sunny 34 1.1 25 -3.9 70 70 WSW 5 7 29.62 1003 10 16 0.00 0.00
8:53 am 08:53 Sunny 38 3.3 26 -3.3 62 62 Calm 29.61 1003 10 16 0.00 0.00
9:53 am 09:53 Sunny 44 6.7 26 -3.3 49 49 Calm 29.59 1002 10 16 0.00 0.00
10:53 am 10:53 Sunny 51 10.6 28 -2.2 41 41 Calm 29.58 1002 10 16 0.00 0.00
11:53 am 11:53 Sunny 57 13.9 29 -1.7 34 34 S 5 7 29.56 1001 10 16 0.00 0.00
12:53 pm 12:53 Sunny 64 17.8 31 -0.6 29 29 SW 7 11 29.52 1000 10 16 0.00 0.00
1:53 pm 13:53 Sunny 70 21.1 30 -1.1 23 23 W 8 13 29.50 999 10 16 0.00 0.00
2:53 pm 14:53 Sunny 72 22.2 31 -0.6 22 22 NW 15 24 29.49 999 10 16 0.00 0.00
3:53 pm 15:53 Sunny 70 21.1 29 -1.7 22 22 NNW 10 17 29.49 999 10 16 0.00 0.00
4:53 pm 16:53 Sunny 69 20.6 29 -1.7 22 22 N 13 20 29.49 999 10 16 0.00 0.00
5:53 pm 17:53 Sunny 68 20 29 -1.7 23 23 N 15 24 29.49 999 10 16 0.00 0.00
6:53 pm 18:53 Partly Cloudy 63 17.2 30 -1.1 29 29 NW 8 13 29.53 1000 10 16 0.00 0.00
7:53 pm 19:53 Cloudy 60 15.6 31 -0.6 33 33 NNW 5 7 29.56 1001 10 16 0.00 0.00
8:53 pm 20:53 Cloudy 58 14.4 32 0 38 38 NNW 15 24 29.58 1002 10 16 0.00 0.00
9:53 pm 21:53 Cloudy 53 11.7 31 -0.6 43 43 NNW 23 37 29.62 1003 10 16 0.00 0.00
10:53 pm 22:53 Cloudy with Light Rain 41 5 34 1.1 76 76 NW 16 26 29.70 1006 8 13 0.00 0.00
11:53 pm 23:53 Cloudy with Light Rain 37 2.8 34 1.1 89 89 NW 23 37 29.75 1007 10 16 0.00 0.00

Powered by AerisWeather